Location: Newark
(23.1300°N, 73.6109°E)
Time: 21:59:59
(UTC+00:00)

Envisat - Visible Passes

Search period start: 24 July 2021 00:00
Search period end: 03 August 2021 00:00
Orbit: 764 x 766 km, 98.1° (Epoch: 24 July)

Date Brightness Start Highest point End Pass type
(mag) Time Alt. Az. Time Alt. Az. Time Alt. Az.
24 Jul 5.6 23:13:22 10° ENE 23:16:31 17° E 23:19:40 10° SE visible
26 Jul 4.8 23:37:25 10° NE 23:41:57 32° E 23:46:27 10° SSE visible
27 Jul 5.9 23:03:05 10° ENE 23:04:59 12° E 23:06:53 10° ESE visible
29 Jul 3.5 00:02:17 10° NNE 00:07:19 65° E 00:12:20 10° S visible
29 Jul 5.2 23:26:21 10° NE 23:30:26 24° E 23:34:29 10° SSE visible
31 Jul 4.0 23:50:56 10° NNE 23:55:50 48° E 00:00:42 10° S visible
01 Aug 5.6 23:15:28 10° NE 23:18:54 18° E 23:22:20 10° SE visible
